Regional Weather Roundup
Issued by NWS Burlington, VT

Home | Current Version | Previous Version | Text Only | Print | Product List | Glossary On
Versions: 1 2 3 4 5 6 7 8 9 10 11 12 13 14 15 16 17 18 19 20 21 22 23 24 25 26 27 28 29 30 31 32 33 34 35 36 37 38 39 40 41 42 43 44 45 46 47 48 49 50
746
ASUS41 KBTV 231210
RWRBTV
VERMONT REGIONAL WEATHER ROUNDUP
NATIONAL WEATHER SERVICE BURLINGTON VT
700 AM EST MON JAN 23 2017

NOTE: "FAIR" INDICATES FEW OR NO CLOUDS BELOW 12,000 FEET WITH NO
SIGNIFICANT WEATHER AND/OR OBSTRUCTIONS TO VISIBILITY.

* THESE REPORTS ARE NOT UNDER NWS QUALITY CONTROL AND/OR DO NOT
  REPORT WEATHER SUCH AS PRECIPITATION AND FOG.

VTZ001>019-231300-
_____VERMONT_____


CITY           SKY/WX    TMP DP  RH WIND       PRES   REMARKS
BURLINGTON     CLOUDY    36  27  69 SE12G20   29.98R WCI  28
6HR MIN TEMP:  34; 6HR MAX TEMP:  37;

MONTPELIER     CLOUDY    30  25  81 SE3       30.01S
6HR MIN TEMP:  30; 6HR MAX TEMP:  33;

MORRISVILLE    CLOUDY    31  26  82 VRB5      30.01S WCI  26
6HR MIN TEMP:  31; 6HR MAX TEMP:  33; 6HR PCP: TRACE;

ST. JOHNSBURY*   N/A     30  22  72 MISG      30.01S
6HR MIN TEMP:  30; 6HR MAX TEMP:  34;

LYNDONVILLE*   CLOUDY    28  23  81 N3        30.02R
6HR MIN TEMP:  28; 6HR MAX TEMP:  33;

MIDDLEBURY*    CLOUDY    34  17  50 SE12      29.98R WCI  25
6HR MIN TEMP:  34; 6HR MAX TEMP:  37;

RUTLAND*       CLOUDY    31  26  82 SE16G26   29.99R WCI  20
6HR MIN TEMP:  31; 6HR MAX TEMP:  34;

SPRINGFIELD    CLOUDY    30  22  72 E7        30.06R WCI  23
6HR MIN TEMP:  30; 6HR MAX TEMP:  33;

HIGHGATE*      CLOUDY    34  32  91 NE3       30.00S
6HR MIN TEMP:  34; 6HR MAX TEMP:  37;

NEWPORT*       CLOUDY    28  22  79 E6        30.02S WCI  21
6HR MIN TEMP:  28; 6HR MAX TEMP:  32;

BENNINGTON     CLOUDY    33  25  72 E14G23    29.94R WCI  23
6HR MIN TEMP:  33; 6HR MAX TEMP:  38;


_____LAKE CHAMPLAIN_____


CITY           SKY/WX    TMP DP  RH WIND       PRES   REMARKS
BURTON ISLAND*   N/A     36  32  87 E7          N/A  WCI  30
COLCHESTER RF*   N/A     34  34 100 E5          N/A  WCI  30
DIAMOND ISL*     N/A     36  34  93 SW3         N/A

$$

NYZ007-026>031-035-052-083-087-231300-
_____NORTHERN NEW YORK_____


CITY           SKY/WX    TMP DP  RH WIND       PRES   REMARKS
PLATTSBURGH    CLOUDY    33  31  92 NW5       29.98S WCI  29
6HR MIN TEMP:  32; 6HR MAX TEMP:  33;

SARANAC LAKE   CLOUDY    31  28  89 E9        29.86R WCI  23
6HR MIN TEMP:  31; 6HR MAX TEMP:  32;

MASSENA        CLOUDY    30  27  88 NE20G25   29.97R WCI  17
6HR MIN TEMP:  29; 6HR MAX TEMP:  30;

OGDENSBURG*    CLOUDY    30  30 100 E9G17     29.93R WCI  22
6HR MIN TEMP:  31; 6HR MAX TEMP:  32;

POTSDAM*       CLOUDY    30  30 100 E9        29.93R WCI  22
WATERTOWN      CLOUDY    33  32  96 NE13      29.87R WCI  24
6HR MIN TEMP:  33; 6HR MAX TEMP:  34;

FT DRUM        CLOUDY    33  31  92 NE3       29.86R
6HR MIN TEMP:  32; 6HR MAX TEMP:  33; 6HR PCP: TRACE;

ALBANY         CLOUDY    38  28  67 E9        29.94S WCI  31
6HR MIN TEMP:  36; 6HR MAX TEMP:  39;

GLENS FALLS    CLOUDY    36  29  75 NE5       29.97R
6HR MIN TEMP:  35; 6HR MAX TEMP:  38;


$$
NHZ002-005-011-231300-
_____NEW HAMPSHIRE_____


CITY           SKY/WX    TMP DP  RH WIND       PRES   REMARKS
LEBANON        CLOUDY    32  23  69 S8        30.07R WCI  25
6HR MIN TEMP:  32; 6HR MAX TEMP:  35;

KEENE          CLOUDY    31  26  82 NE10      30.03R WCI  22
6HR MIN TEMP:  31; 6HR MAX TEMP:  34; 6HR PCP: TRACE;

MT WASHINGTON  CLOUDY    19   7  58 E21         N/A  WCI   3
6HR MIN TEMP:  19; 6HR MAX TEMP:  28;

PLYMOUTH       CLOUDY    31  22  71 SE6       30.07R WCI  25
6HR MIN TEMP:  31; 6HR MAX TEMP:  33;

WHITEFIELD     CLOUDY    27  18  69 E15       30.02S WCI  15
6HR MIN TEMP:  27; 6HR MAX TEMP:  31;


$$

_____REGIONAL QUEBEC LOCATIONS_____


CITY           SKY/WX    TMP DP  RH WIND       PRES   REMARKS
MONTREAL       FLURRIES  28  23  80 NE17G24   30.03S WCI  16
QUEBEC CITY    MOCLDY    25  18  74 E13G20    30.18R WCI  13
SHERBROOKE     CLOUDY    25  18  74 E9        30.06F WCI  15

_____REGIONAL ONTARIO LOCATIONS_____


CITY           SKY/WX    TMP DP  RH WIND       PRES   REMARKS
OTTAWA         FRZ DRZL  27  25  93 E18G28    29.96F FOG     WCI  13

______KEY______
VSB  - VISIBILITY IN MILES
WCI  - WIND CHILL INDEX
HX   - HEAT INDEX
$$
NNNN




USA.gov is the U.S. government's official web portal to all federal, state and local government web resources and services.